contact:dominique.lefevre@mio.osupytheas.fr, maurice.libes@osupytheas.fr, didier.mallarino@osupytheas.fr
Project:EMSO http://www.emso-fr.org/EMSO-France
Depth: 2436.0 m
Title:EMSO Ligure Ouest : Data MII capteur CSTAR
DateTime,Latitude,Longitude,Instrument_Serial,Reference_Counts,Signal_Counts,Corrected_Signal_raw_counts,Calculated_Beam_c_inverse_meters,Internal_thermistor_counts
DateTime,Latitude,Longitude,Instrument_Serial,Reference_Counts,Signal_Counts,Corrected_Signal_raw_counts,Calculated_Beam_c_inverse_meters,Internal_thermistor_counts
2022-01-20T00:01:18,42.805,6.029,CST-1368DR,4962,6273,13506,0.581,551
2022-01-20T00:04:19,42.805,6.029,CST-1368DR,4962,6278,13517,0.577,551
2022-01-20T00:07:21,42.805,6.029,CST-1368DR,4962,6278,13518,0.577,551
2022-01-20T00:10:22,42.805,6.029,CST-1368DR,4962,6278,13516,0.578,551
2022-01-20T00:13:24,42.805,6.029,CST-1368DR,4962,6277,13516,0.578,551
2022-01-20T00:16:26,42.805,6.029,CST-1368DR,4962,6278,13518,0.577,551
2022-01-20T00:19:27,42.805,6.029,CST-1368DR,4962,6277,13515,0.578,551
2022-01-20T00:22:29,42.805,6.029,CST-1368DR,4962,6278,13516,0.578,551
2022-01-20T00:25:30,42.805,6.029,CST-1368DR,4962,6276,13514,0.578,551
2022-01-20T00:28:32,42.805,6.029,CST-1368DR,4962,6278,13518,0.577,551
2022-01-20T00:31:33,42.805,6.029,CST-1368DR,4962,6278,13518,0.577,551
2022-01-20T00:34:35,42.805,6.029,CST-1368DR,4963,6278,13515,0.578,551
2022-01-20T00:37:37,42.805,6.029,CST-1368DR,4962,6279,13519,0.577,551
2022-01-20T00:40:38,42.805,6.029,CST-1368DR,4962,6278,13517,0.577,551
2022-01-20T00:43:40,42.805,6.029,CST-1368DR,4962,6278,13517,0.577,551
2022-01-20T00:46:41,42.805,6.029,CST-1368DR,4962,6278,13517,0.577,551
2022-01-20T00:49:43,42.805,6.029,CST-1368DR,4963,6278,13515,0.578,551
2022-01-20T00:52:45,42.805,6.029,CST-1368DR,4963,6278,13515,0.578,551
2022-01-20T00:55:46,42.805,6.029,CST-1368DR,4963,6278,13514,0.578,551
2022-01-20T00:58:48,42.805,6.029,CST-1368DR,4963,6276,13511,0.579,551
2022-01-20T01:01:49,42.805,6.029,CST-1368DR,4963,6279,13516,0.578,551
2022-01-20T01:04:51,42.805,6.029,CST-1368DR,4962,6278,13517,0.577,551
2022-01-20T01:07:52,42.805,6.029,CST-1368DR,4963,6278,13515,0.578,551
2022-01-20T01:10:54,42.805,6.029,CST-1368DR,4962,6278,13518,0.577,551
2022-01-20T01:13:56,42.805,6.029,CST-1368DR,4962,6279,13519,0.577,551
2022-01-20T01:16:57,42.805,6.029,CST-1368DR,4963,6278,13514,0.578,551
2022-01-20T01:19:59,42.805,6.029,CST-1368DR,4962,6278,13517,0.577,551
2022-01-20T01:23:00,42.805,6.029,CST-1368DR,4962,6278,13518,0.577,551
2022-01-20T01:26:02,42.805,6.029,CST-1368DR,4962,6276,13514,0.578,551
2022-01-20T01:29:04,42.805,6.029,CST-1368DR,4962,6278,13518,0.577,551
2022-01-20T01:32:05,42.805,6.029,CST-1368DR,4962,6279,13519,0.577,551
2022-01-20T01:35:07,42.805,6.029,CST-1368DR,4962,6276,13513,0.579,551
2022-01-20T01:38:08,42.805,6.029,CST-1368DR,4962,6277,13515,0.578,551
2022-01-20T01:41:10,42.805,6.029,CST-1368DR,4962,6278,13517,0.577,551
2022-01-20T01:44:11,42.805,6.029,CST-1368DR,4962,6280,13521,0.576,551
2022-01-20T01:47:13,42.805,6.029,CST-1368DR,4962,6278,13517,0.577,551
2022-01-20T01:50:15,42.805,6.029,CST-1368DR,4962,6278,13517,0.577,551
2022-01-20T01:53:16,42.805,6.029,CST-1368DR,4962,6279,13519,0.577,551
2022-01-20T01:56:18,42.805,6.029,CST-1368DR,4962,6278,13517,0.577,551
2022-01-20T01:59:19,42.805,6.029,CST-1368DR,4962,6279,13519,0.577,551
2022-01-20T02:02:21,42.805,6.029,CST-1368DR,4962,6278,13517,0.577,551
2022-01-20T02:05:22,42.805,6.029,CST-1368DR,4962,6277,13516,0.578,551
2022-01-20T02:08:24,42.805,6.029,CST-1368DR,4962,6279,13519,0.577,551
2022-01-20T02:11:26,42.805,6.029,CST-1368DR,4962,6277,13516,0.578,551
2022-01-20T02:14:27,42.805,6.029,CST-1368DR,4962,6278,13518,0.577,551
2022-01-20T02:17:29,42.805,6.029,CST-1368DR,4962,6277,13516,0.578,551
2022-01-20T02:20:30,42.805,6.029,CST-1368DR,4962,6279,13518,0.577,551
2022-01-20T02:23:32,42.805,6.029,CST-1368DR,4962,6278,13516,0.578,551
2022-01-20T02:26:34,42.805,6.029,CST-1368DR,4962,6278,13517,0.577,551
2022-01-20T02:29:35,42.805,6.029,CST-1368DR,4962,6277,13516,0.578,551
2022-01-20T02:32:37,42.805,6.029,CST-1368DR,4962,6279,13520,0.577,551
2022-01-20T02:35:38,42.805,6.029,CST-1368DR,4962,6279,13519,0.577,551
2022-01-20T02:38:40,42.805,6.029,CST-1368DR,4962,6279,13519,0.577,551
2022-01-20T02:41:41,42.805,6.029,CST-1368DR,4962,6278,13518,0.577,551
2022-01-20T02:44:43,42.805,6.029,CST-1368DR,4962,6279,13519,0.577,551
2022-01-20T02:47:45,42.805,6.029,CST-1368DR,4962,6278,13516,0.578,551
2022-01-20T02:50:46,42.805,6.029,CST-1368DR,4962,6278,13518,0.577,551
2022-01-20T02:53:48,42.805,6.029,CST-1368DR,4962,6278,13517,0.577,551
2022-01-20T02:56:49,42.805,6.029,CST-1368DR,4962,6279,13520,0.577,551
2022-01-20T02:59:51,42.805,6.029,CST-1368DR,4962,6279,13518,0.577,551
2022-01-20T03:02:52,42.805,6.029,CST-1368DR,4962,6277,13516,0.578,551
2022-01-20T03:05:54,42.805,6.029,CST-1368DR,4962,6278,13517,0.577,551
2022-01-20T03:08:56,42.805,6.029,CST-1368DR,4962,6279,13518,0.577,551
2022-01-20T03:11:57,42.805,6.029,CST-1368DR,4962,6279,13520,0.577,551
2022-01-20T03:14:59,42.805,6.029,CST-1368DR,4962,6279,13518,0.577,551
2022-01-20T03:18:00,42.805,6.029,CST-1368DR,4962,6279,13520,0.577,551
2022-01-20T03:21:02,42.805,6.029,CST-1368DR,4962,6279,13518,0.577,551
2022-01-20T03:24:04,42.805,6.029,CST-1368DR,4962,6279,13518,0.577,551
2022-01-20T03:27:05,42.805,6.029,CST-1368DR,4962,6278,13518,0.577,551
2022-01-20T03:30:07,42.805,6.029,CST-1368DR,4962,6278,13517,0.577,551
2022-01-20T03:33:08,42.805,6.029,CST-1368DR,4962,6279,13518,0.577,551
2022-01-20T03:36:10,42.805,6.029,CST-1368DR,4962,6279,13520,0.577,551
2022-01-20T03:39:11,42.805,6.029,CST-1368DR,4962,6280,13521,0.576,551
2022-01-20T03:42:13,42.805,6.029,CST-1368DR,4962,6279,13520,0.577,551
2022-01-20T03:45:15,42.805,6.029,CST-1368DR,4962,6278,13516,0.578,551
2022-01-20T03:48:16,42.805,6.029,CST-1368DR,4962,6279,13520,0.577,551
2022-01-20T03:51:18,42.805,6.029,CST-1368DR,4962,6276,13513,0.579,551
2022-01-20T03:54:19,42.805,6.029,CST-1368DR,4962,6279,13520,0.577,551
2022-01-20T03:57:21,42.805,6.029,CST-1368DR,4962,6279,13520,0.577,551
2022-01-20T04:00:23,42.805,6.029,CST-1368DR,4962,6278,13518,0.577,551
2022-01-20T04:03:24,42.805,6.029,CST-1368DR,4962,6278,13518,0.577,551
2022-01-20T04:06:26,42.805,6.029,CST-1368DR,4962,6277,13514,0.578,551
2022-01-20T04:09:27,42.805,6.029,CST-1368DR,4962,6277,13516,0.578,551
2022-01-20T04:12:29,42.805,6.029,CST-1368DR,4962,6278,13517,0.577,551
2022-01-20T04:15:30,42.805,6.029,CST-1368DR,4962,6277,13515,0.578,551
2022-01-20T04:18:32,42.805,6.029,CST-1368DR,4962,6279,13518,0.577,551
2022-01-20T04:21:34,42.805,6.029,CST-1368DR,4962,6278,13517,0.577,551
2022-01-20T04:24:35,42.805,6.029,CST-1368DR,4962,6277,13516,0.578,551
2022-01-20T04:27:37,42.805,6.029,CST-1368DR,4962,6278,13516,0.578,551
2022-01-20T04:30:38,42.805,6.029,CST-1368DR,4962,6277,13516,0.578,551
2022-01-20T04:33:40,42.805,6.029,CST-1368DR,4962,6277,13516,0.578,551
2022-01-20T04:36:42,42.805,6.029,CST-1368DR,4962,6279,13518,0.577,551
2022-01-20T04:39:43,42.805,6.029,CST-1368DR,4962,6278,13518,0.577,551
2022-01-20T04:42:45,42.805,6.029,CST-1368DR,4962,6278,13518,0.577,551
2022-01-20T04:45:46,42.805,6.029,CST-1368DR,4962,6278,13516,0.578,551
2022-01-20T04:48:48,42.805,6.029,CST-1368DR,4962,6278,13518,0.577,551
2022-01-20T04:51:49,42.805,6.029,CST-1368DR,4962,6278,13517,0.577,551
2022-01-20T04:54:51,42.805,6.029,CST-1368DR,4962,6278,13518,0.577,550
2022-01-20T04:57:53,42.805,6.029,CST-1368DR,4962,6279,13518,0.577,551
2022-01-20T05:00:54,42.805,6.029,CST-1368DR,4962,6278,13518,0.577,551
2022-01-20T05:03:56,42.805,6.029,CST-1368DR,4962,6278,13517,0.577,551
2022-01-20T05:06:57,42.805,6.029,CST-1368DR,4962,6279,13519,0.577,551
2022-01-20T05:09:59,42.805,6.029,CST-1368DR,4962,6277,13514,0.578,551
2022-01-20T05:13:00,42.805,6.029,CST-1368DR,4962,6278,13517,0.577,551
2022-01-20T05:16:02,42.805,6.029,CST-1368DR,4962,6278,13518,0.577,551
2022-01-20T05:19:04,42.805,6.029,CST-1368DR,4962,6278,13517,0.577,551
2022-01-20T05:22:05,42.805,6.029,CST-1368DR,4962,6278,13517,0.577,551
2022-01-20T05:25:07,42.805,6.029,CST-1368DR,4962,6278,13517,0.577,551
2022-01-20T05:28:08,42.805,6.029,CST-1368DR,4962,6278,13516,0.578,551
2022-01-20T05:31:10,42.805,6.029,CST-1368DR,4962,6279,13518,0.577,551
2022-01-20T05:34:12,42.805,6.029,CST-1368DR,4962,6277,13516,0.578,551
2022-01-20T05:37:13,42.805,6.029,CST-1368DR,4962,6279,13518,0.577,551
2022-01-20T05:40:15,42.805,6.029,CST-1368DR,4962,6277,13515,0.578,551
2022-01-20T05:43:16,42.805,6.029,CST-1368DR,4962,6278,13518,0.577,551
2022-01-20T05:46:18,42.805,6.029,CST-1368DR,4962,6278,13516,0.578,551
2022-01-20T05:49:19,42.805,6.029,CST-1368DR,4962,6278,13517,0.577,551
2022-01-20T05:52:21,42.805,6.029,CST-1368DR,4962,6278,13517,0.577,551
2022-01-20T05:55:23,42.805,6.029,CST-1368DR,4962,6277,13516,0.578,551
2022-01-20T05:58:24,42.805,6.029,CST-1368DR,4962,6277,13515,0.578,551
2022-01-20T06:01:26,42.805,6.029,CST-1368DR,4962,6277,13516,0.578,551
2022-01-20T06:04:27,42.805,6.029,CST-1368DR,4962,6278,13516,0.578,551
2022-01-20T06:07:29,42.805,6.029,CST-1368DR,4962,6278,13517,0.577,551
2022-01-20T06:10:31,42.805,6.029,CST-1368DR,4962,6277,13516,0.578,551
2022-01-20T06:13:32,42.805,6.029,CST-1368DR,4962,6276,13514,0.578,551
2022-01-20T06:16:34,42.805,6.029,CST-1368DR,4962,6277,13514,0.578,551
2022-01-20T06:19:35,42.805,6.029,CST-1368DR,4962,6278,13516,0.578,551
2022-01-20T06:22:37,42.805,6.029,CST-1368DR,4962,6278,13518,0.577,551
2022-01-20T06:25:38,42.805,6.029,CST-1368DR,4962,6278,13517,0.577,551
2022-01-20T06:28:40,42.805,6.029,CST-1368DR,4962,6278,13517,0.577,551
2022-01-20T06:31:42,42.805,6.029,CST-1368DR,4962,6278,13518,0.577,551
2022-01-20T06:34:43,42.805,6.029,CST-1368DR,4962,6276,13513,0.579,551
2022-01-20T06:37:45,42.805,6.029,CST-1368DR,4962,6278,13517,0.577,551
2022-01-20T06:40:46,42.805,6.029,CST-1368DR,4962,6276,13512,0.579,551
2022-01-20T06:43:48,42.805,6.029,CST-1368DR,4962,6278,13517,0.577,551
2022-01-20T06:46:49,42.805,6.029,CST-1368DR,4962,6278,13516,0.578,551
2022-01-20T06:49:51,42.805,6.029,CST-1368DR,4962,6278,13517,0.577,551
2022-01-20T06:52:53,42.805,6.029,CST-1368DR,4962,6278,13517,0.577,550
2022-01-20T06:55:54,42.805,6.029,CST-1368DR,4962,6278,13517,0.577,551
2022-01-20T06:58:56,42.805,6.029,CST-1368DR,4962,6277,13514,0.578,551
2022-01-20T07:01:57,42.805,6.029,CST-1368DR,4962,6277,13515,0.578,551
2022-01-20T07:04:59,42.805,6.029,CST-1368DR,4962,6278,13516,0.578,551
2022-01-20T07:08:01,42.805,6.029,CST-1368DR,4962,6278,13518,0.577,551
2022-01-20T07:11:02,42.805,6.029,CST-1368DR,4962,6278,13517,0.577,551
2022-01-20T07:14:04,42.805,6.029,CST-1368DR,4962,6278,13516,0.578,551
2022-01-20T07:17:05,42.805,6.029,CST-1368DR,4962,6278,13517,0.577,551
2022-01-20T07:20:07,42.805,6.029,CST-1368DR,4962,6278,13516,0.578,551
2022-01-20T07:23:08,42.805,6.029,CST-1368DR,4962,6277,13514,0.578,551
2022-01-20T07:26:10,42.805,6.029,CST-1368DR,4962,6276,13514,0.578,551
2022-01-20T07:29:12,42.805,6.029,CST-1368DR,4962,6278,13516,0.578,551
2022-01-20T07:32:13,42.805,6.029,CST-1368DR,4962,6276,13513,0.579,551
2022-01-20T07:35:15,42.805,6.029,CST-1368DR,4962,6277,13515,0.578,551
2022-01-20T07:38:16,42.805,6.029,CST-1368DR,4962,6275,13511,0.579,551
2022-01-20T07:41:18,42.805,6.029,CST-1368DR,4962,6275,13511,0.579,551
2022-01-20T07:44:20,42.805,6.029,CST-1368DR,4962,6277,13515,0.578,551
2022-01-20T07:47:21,42.805,6.029,CST-1368DR,4962,6275,13511,0.579,551
2022-01-20T07:50:23,42.805,6.029,CST-1368DR,4962,6276,13513,0.579,551
2022-01-20T07:53:24,42.805,6.029,CST-1368DR,4962,6276,13512,0.579,551
2022-01-20T07:56:26,42.805,6.029,CST-1368DR,4962,6277,13514,0.578,551
2022-01-20T07:59:27,42.805,6.029,CST-1368DR,4962,6273,13507,0.580,551
2022-01-20T08:02:29,42.805,6.029,CST-1368DR,4962,6277,13515,0.578,551
2022-01-20T08:05:31,42.805,6.029,CST-1368DR,4962,6275,13511,0.579,551
2022-01-20T08:08:32,42.805,6.029,CST-1368DR,4962,6273,13507,0.580,551
2022-01-20T08:11:34,42.805,6.029,CST-1368DR,4962,6276,13513,0.579,551
2022-01-20T08:14:35,42.805,6.029,CST-1368DR,4962,6274,13508,0.580,551
2022-01-20T08:17:37,42.805,6.029,CST-1368DR,4962,6274,13509,0.580,551
2022-01-20T08:20:39,42.805,6.029,CST-1368DR,4962,6274,13509,0.580,551
2022-01-20T08:23:40,42.805,6.029,CST-1368DR,4962,6275,13510,0.579,551
2022-01-20T08:26:42,42.805,6.029,CST-1368DR,4962,6276,13513,0.579,551
2022-01-20T08:29:43,42.805,6.029,CST-1368DR,4962,6276,13513,0.579,551
2022-01-20T08:32:45,42.805,6.029,CST-1368DR,4962,6275,13510,0.579,551
2022-01-20T08:35:46,42.805,6.029,CST-1368DR,4962,6276,13512,0.579,551
2022-01-20T08:38:48,42.805,6.029,CST-1368DR,4962,6275,13510,0.579,551
2022-01-20T08:41:50,42.805,6.029,CST-1368DR,4962,6273,13507,0.580,551
2022-01-20T08:44:51,42.805,6.029,CST-1368DR,4962,6275,13510,0.579,551
2022-01-20T08:47:53,42.805,6.029,CST-1368DR,4962,6275,13511,0.579,551
2022-01-20T08:50:54,42.805,6.029,CST-1368DR,4962,6275,13510,0.579,551
2022-01-20T08:53:56,42.805,6.029,CST-1368DR,4962,6275,13511,0.579,551
2022-01-20T08:56:57,42.805,6.029,CST-1368DR,4962,6275,13510,0.579,551
2022-01-20T08:59:59,42.805,6.029,CST-1368DR,4962,6275,13510,0.579,551
2022-01-20T09:03:01,42.805,6.029,CST-1368DR,4962,6275,13510,0.579,551
2022-01-20T09:06:02,42.805,6.029,CST-1368DR,4962,6276,13513,0.579,551
2022-01-20T09:09:04,42.805,6.029,CST-1368DR,4962,6273,13507,0.580,551
2022-01-20T09:12:05,42.805,6.029,CST-1368DR,4962,6275,13511,0.579,551
2022-01-20T09:15:07,42.805,6.029,CST-1368DR,4962,6273,13506,0.581,551
2022-01-20T09:18:09,42.805,6.029,CST-1368DR,4962,6276,13512,0.579,551
2022-01-20T09:21:10,42.805,6.029,CST-1368DR,4962,6274,13508,0.580,551
2022-01-20T09:24:12,42.805,6.029,CST-1368DR,4962,6274,13509,0.580,551
2022-01-20T09:27:13,42.805,6.029,CST-1368DR,4962,6275,13510,0.579,551
2022-01-20T09:30:15,42.805,6.029,CST-1368DR,4962,6273,13507,0.580,551
2022-01-20T09:33:16,42.805,6.029,CST-1368DR,4962,6275,13510,0.579,551
2022-01-20T09:36:18,42.805,6.029,CST-1368DR,4962,6275,13510,0.579,551
2022-01-20T09:39:20,42.805,6.029,CST-1368DR,4962,6275,13510,0.579,551
2022-01-20T09:42:21,42.805,6.029,CST-1368DR,4962,6276,13512,0.579,551
2022-01-20T09:45:23,42.805,6.029,CST-1368DR,4962,6275,13510,0.579,551
2022-01-20T09:48:24,42.805,6.029,CST-1368DR,4962,6275,13510,0.579,551
2022-01-20T09:51:26,42.805,6.029,CST-1368DR,4962,6275,13510,0.579,551
2022-01-20T09:54:27,42.805,6.029,CST-1368DR,4962,6275,13510,0.579,551
2022-01-20T09:57:29,42.805,6.029,CST-1368DR,4962,6274,13508,0.580,551
2022-01-20T10:00:31,42.805,6.029,CST-1368DR,4962,6274,13509,0.580,551
2022-01-20T10:03:32,42.805,6.029,CST-1368DR,4962,6274,13509,0.580,551
2022-01-20T10:06:34,42.805,6.029,CST-1368DR,4962,6275,13511,0.579,551
2022-01-20T10:09:35,42.805,6.029,CST-1368DR,4962,6275,13510,0.579,551
2022-01-20T10:12:37,42.805,6.029,CST-1368DR,4961,6275,13512,0.579,551
2022-01-20T10:15:39,42.805,6.029,CST-1368DR,4962,6273,13507,0.580,551
2022-01-20T10:18:40,42.805,6.029,CST-1368DR,4962,6275,13510,0.579,551
2022-01-20T10:21:42,42.805,6.029,CST-1368DR,4962,6275,13510,0.579,551
2022-01-20T10:24:43,42.805,6.029,CST-1368DR,4961,6274,13511,0.579,551
2022-01-20T10:35:06,42.805,6.029,CST-1368DR,4962,6273,13507,0.580,551
2022-01-20T10:38:08,42.805,6.029,CST-1368DR,4962,6274,13508,0.580,551
2022-01-20T10:41:09,42.805,6.029,CST-1368DR,4962,6273,13506,0.581,551
2022-01-20T10:44:11,42.805,6.029,CST-1368DR,4962,6273,13506,0.581,550
2022-01-20T10:47:13,42.805,6.029,CST-1368DR,4961,6273,13509,0.580,551
2022-01-20T10:50:14,42.805,6.029,CST-1368DR,4962,6273,13507,0.580,551
2022-01-20T10:53:16,42.805,6.029,CST-1368DR,4961,6274,13511,0.579,551
2022-01-20T10:56:17,42.805,6.029,CST-1368DR,4962,6273,13506,0.581,551
2022-01-20T10:59:19,42.805,6.029,CST-1368DR,4961,6273,13510,0.579,551
2022-01-20T11:02:20,42.805,6.029,CST-1368DR,4962,6275,13510,0.579,551
2022-01-20T11:05:22,42.805,6.029,CST-1368DR,4961,6273,13509,0.580,551
2022-01-20T11:08:24,42.805,6.029,CST-1368DR,4962,6274,13508,0.580,551
2022-01-20T11:11:25,42.805,6.029,CST-1368DR,4962,6273,13506,0.581,551
2022-01-20T11:14:27,42.805,6.029,CST-1368DR,4962,6274,13508,0.580,551
2022-01-20T11:17:28,42.805,6.029,CST-1368DR,4962,6273,13506,0.581,551
2022-01-20T11:20:30,42.805,6.029,CST-1368DR,4961,6273,13510,0.579,551
2022-01-20T11:23:32,42.805,6.029,CST-1368DR,4962,6274,13509,0.580,551
2022-01-20T11:26:33,42.805,6.029,CST-1368DR,4962,6273,13507,0.580,551
2022-01-20T11:29:35,42.805,6.029,CST-1368DR,4961,6274,13512,0.579,551
2022-01-20T11:32:36,42.805,6.029,CST-1368DR,4961,6272,13507,0.580,551
2022-01-20T11:35:38,42.805,6.029,CST-1368DR,4961,6273,13509,0.580,551
2022-01-20T11:38:39,42.805,6.029,CST-1368DR,4961,6273,13509,0.580,551
2022-01-20T11:41:41,42.805,6.029,CST-1368DR,4961,6274,13511,0.579,551
2022-01-20T11:44:43,42.805,6.029,CST-1368DR,4961,6274,13512,0.579,551
2022-01-20T11:47:44,42.805,6.029,CST-1368DR,4961,6274,13511,0.579,551
2022-01-20T11:50:46,42.805,6.029,CST-1368DR,4962,6275,13510,0.579,551
2022-01-20T11:53:47,42.805,6.029,CST-1368DR,4962,6273,13507,0.580,551
2022-01-20T11:56:49,42.805,6.029,CST-1368DR,4961,6273,13508,0.580,551
2022-01-20T11:59:51,42.805,6.029,CST-1368DR,4962,6274,13508,0.580,551
2022-01-20T12:02:52,42.805,6.029,CST-1368DR,4962,6273,13506,0.581,551
2022-01-20T12:05:54,42.805,6.029,CST-1368DR,4961,6273,13509,0.580,551
2022-01-20T12:08:55,42.805,6.029,CST-1368DR,4961,6273,13510,0.579,551
2022-01-20T12:11:57,42.805,6.029,CST-1368DR,4961,6272,13507,0.580,551
2022-01-20T12:14:58,42.805,6.029,CST-1368DR,4961,6272,13508,0.580,551
2022-01-20T12:18:00,42.805,6.029,CST-1368DR,4961,6272,13507,0.580,551
2022-01-20T12:21:02,42.805,6.029,CST-1368DR,4961,6270,13503,0.582,551
2022-01-20T12:24:03,42.805,6.029,CST-1368DR,4961,6269,13501,0.582,551
2022-01-20T12:27:05,42.805,6.029,CST-1368DR,4961,6273,13509,0.580,551
2022-01-20T12:30:06,42.805,6.029,CST-1368DR,4961,6272,13507,0.580,551
2022-01-20T12:33:08,42.805,6.029,CST-1368DR,4961,6274,13511,0.579,551
2022-01-20T12:36:09,42.805,6.029,CST-1368DR,4961,6273,13508,0.580,551
2022-01-20T12:39:11,42.805,6.029,CST-1368DR,4961,6273,13510,0.579,551
2022-01-20T12:42:13,42.805,6.029,CST-1368DR,4961,6274,13511,0.579,551
2022-01-20T12:45:14,42.805,6.029,CST-1368DR,4961,6275,13512,0.579,551
2022-01-20T12:48:16,42.805,6.029,CST-1368DR,4961,6275,13512,0.579,551
2022-01-20T12:51:17,42.805,6.029,CST-1368DR,4961,6273,13509,0.580,551
2022-01-20T12:54:19,42.805,6.029,CST-1368DR,4961,6274,13512,0.579,551
2022-01-20T12:57:21,42.805,6.029,CST-1368DR,4961,6275,13514,0.578,551
2022-01-20T13:00:22,42.805,6.029,CST-1368DR,4961,6275,13512,0.579,550
2022-01-20T13:03:24,42.805,6.029,CST-1368DR,4961,6275,13514,0.578,551
2022-01-20T13:06:25,42.805,6.029,CST-1368DR,4961,6275,13513,0.579,551
2022-01-20T13:09:27,42.805,6.029,CST-1368DR,4961,6275,13513,0.579,551
2022-01-20T13:12:28,42.805,6.029,CST-1368DR,4961,6275,13514,0.578,551
2022-01-20T13:15:30,42.805,6.029,CST-1368DR,4961,6274,13511,0.579,551
2022-01-20T13:18:32,42.805,6.029,CST-1368DR,4961,6274,13511,0.579,551
2022-01-20T13:21:33,42.805,6.029,CST-1368DR,4961,6274,13512,0.579,551
2022-01-20T13:24:35,42.805,6.029,CST-1368DR,4961,6273,13510,0.579,551
2022-01-20T13:27:36,42.805,6.029,CST-1368DR,4961,6275,13514,0.578,551
2022-01-20T13:30:38,42.805,6.029,CST-1368DR,4961,6274,13512,0.579,551
2022-01-20T13:33:40,42.805,6.029,CST-1368DR,4961,6273,13509,0.580,551
2022-01-20T13:36:41,42.805,6.029,CST-1368DR,4961,6274,13512,0.579,551
2022-01-20T13:39:43,42.805,6.029,CST-1368DR,4961,6275,13512,0.579,551
2022-01-20T13:42:44,42.805,6.029,CST-1368DR,4961,6273,13509,0.580,551
2022-01-20T13:45:46,42.805,6.029,CST-1368DR,4961,6274,13511,0.579,551
2022-01-20T13:48:47,42.805,6.029,CST-1368DR,4961,6273,13510,0.579,551
2022-01-20T13:51:49,42.805,6.029,CST-1368DR,4961,6275,13513,0.579,551
2022-01-20T13:54:51,42.805,6.029,CST-1368DR,4961,6274,13512,0.579,551
2022-01-20T13:57:52,42.805,6.029,CST-1368DR,4961,6273,13510,0.579,551
2022-01-20T14:00:54,42.805,6.029,CST-1368DR,4961,6273,13508,0.580,551
2022-01-20T14:03:55,42.805,6.029,CST-1368DR,4961,6274,13511,0.579,551
2022-01-20T14:06:57,42.805,6.029,CST-1368DR,4961,6276,13515,0.578,551
2022-01-20T14:09:58,42.805,6.029,CST-1368DR,4961,6273,13509,0.580,551
2022-01-20T14:13:00,42.805,6.029,CST-1368DR,4961,6275,13513,0.579,551
2022-01-20T14:16:02,42.805,6.029,CST-1368DR,4961,6274,13511,0.579,551
2022-01-20T14:19:03,42.805,6.029,CST-1368DR,4961,6275,13512,0.579,551
2022-01-20T14:22:05,42.805,6.029,CST-1368DR,4961,6273,13509,0.580,551
2022-01-20T14:25:06,42.805,6.029,CST-1368DR,4961,6273,13509,0.580,551
2022-01-20T14:28:08,42.805,6.029,CST-1368DR,4961,6275,13513,0.579,551
2022-01-20T14:31:10,42.805,6.029,CST-1368DR,4961,6274,13511,0.579,551
2022-01-20T14:34:11,42.805,6.029,CST-1368DR,4961,6275,13514,0.578,551
2022-01-20T14:37:13,42.805,6.029,CST-1368DR,4961,6273,13510,0.579,551
2022-01-20T14:40:14,42.805,6.029,CST-1368DR,4961,6275,13513,0.579,551
2022-01-20T14:43:16,42.805,6.029,CST-1368DR,4961,6275,13512,0.579,551
2022-01-20T14:46:17,42.805,6.029,CST-1368DR,4961,6272,13507,0.580,551
2022-01-20T14:49:19,42.805,6.029,CST-1368DR,4961,6275,13512,0.579,551
2022-01-20T14:52:21,42.805,6.029,CST-1368DR,4961,6273,13509,0.580,551
2022-01-20T14:55:22,42.805,6.029,CST-1368DR,4961,6275,13512,0.579,551
2022-01-20T14:58:24,42.805,6.029,CST-1368DR,4961,6274,13511,0.579,551
2022-01-20T15:01:25,42.805,6.029,CST-1368DR,4961,6275,13512,0.579,551
2022-01-20T15:04:27,42.805,6.029,CST-1368DR,4961,6275,13514,0.578,551
2022-01-20T15:07:29,42.805,6.029,CST-1368DR,4961,6272,13506,0.581,551
2022-01-20T15:10:30,42.805,6.029,CST-1368DR,4961,6275,13513,0.579,551
2022-01-20T15:13:32,42.805,6.029,CST-1368DR,4961,6273,13509,0.580,551
2022-01-20T15:16:33,42.805,6.029,CST-1368DR,4961,6275,13513,0.579,551
2022-01-20T15:19:35,42.805,6.029,CST-1368DR,4961,6274,13511,0.579,551
2022-01-20T15:22:36,42.805,6.029,CST-1368DR,4961,6274,13512,0.579,551
2022-01-20T15:25:38,42.805,6.029,CST-1368DR,4961,6275,13514,0.578,551
2022-01-20T15:28:40,42.805,6.029,CST-1368DR,4961,6274,13511,0.579,551
2022-01-20T15:31:41,42.805,6.029,CST-1368DR,4961,6274,13511,0.579,551
2022-01-20T15:34:43,42.805,6.029,CST-1368DR,4961,6275,13512,0.579,550
2022-01-20T15:37:44,42.805,6.029,CST-1368DR,4961,6274,13512,0.579,551
2022-01-20T15:40:46,42.805,6.029,CST-1368DR,4961,6273,13509,0.580,551
2022-01-20T15:43:47,42.805,6.029,CST-1368DR,4961,6273,13509,0.580,551
2022-01-20T15:46:49,42.805,6.029,CST-1368DR,4961,6274,13511,0.579,551
2022-01-20T15:49:51,42.805,6.029,CST-1368DR,4961,6272,13506,0.581,551
2022-01-20T15:52:52,42.805,6.029,CST-1368DR,4961,6274,13512,0.579,551
2022-01-20T15:55:54,42.805,6.029,CST-1368DR,4961,6273,13509,0.580,551
2022-01-20T15:58:55,42.805,6.029,CST-1368DR,4961,6274,13512,0.579,551
2022-01-20T16:01:57,42.805,6.029,CST-1368DR,4961,6273,13510,0.579,551
2022-01-20T16:04:59,42.805,6.029,CST-1368DR,4961,6274,13511,0.579,551
2022-01-20T16:08:00,42.805,6.029,CST-1368DR,4961,6274,13511,0.579,551
2022-01-20T16:11:02,42.805,6.029,CST-1368DR,4961,6272,13507,0.580,551
2022-01-20T16:14:03,42.805,6.029,CST-1368DR,4961,6272,13507,0.580,551
2022-01-20T16:17:05,42.805,6.029,CST-1368DR,4961,6273,13509,0.580,551
2022-01-20T16:20:06,42.805,6.029,CST-1368DR,4961,6273,13510,0.579,551
2022-01-20T16:23:08,42.805,6.029,CST-1368DR,4961,6273,13508,0.580,551
2022-01-20T16:26:10,42.805,6.029,CST-1368DR,4961,6273,13509,0.580,551
2022-01-20T16:29:11,42.805,6.029,CST-1368DR,4961,6274,13511,0.579,551
2022-01-20T16:32:13,42.805,6.029,CST-1368DR,4961,6273,13510,0.579,551
2022-01-20T16:35:14,42.805,6.029,CST-1368DR,4961,6273,13510,0.579,551
2022-01-20T16:38:16,42.805,6.029,CST-1368DR,4961,6274,13511,0.579,551
2022-01-20T16:41:17,42.805,6.029,CST-1368DR,4961,6272,13506,0.581,551
2022-01-20T16:44:19,42.805,6.029,CST-1368DR,4961,6274,13512,0.579,550
2022-01-20T16:47:21,42.805,6.029,CST-1368DR,4961,6273,13508,0.580,551
2022-01-20T16:50:22,42.805,6.029,CST-1368DR,4961,6274,13511,0.579,551
2022-01-20T16:53:24,42.805,6.029,CST-1368DR,4961,6274,13511,0.579,551
2022-01-20T16:56:25,42.805,6.029,CST-1368DR,4961,6273,13509,0.580,551
2022-01-20T16:59:27,42.805,6.029,CST-1368DR,4961,6273,13508,0.580,551